Location: Akgöl Batakl???
(38.9482°N, 31.8837°E)
Time: 11:22:37
(UTC+00:00)

Nimbus 7 Rocket - Pass Details

Date: 08 May 2026
Orbit: 921 x 963 km, 99.4° (Epoch: 7 June)

Event Time Altitude Azimuth Distance (km) Brightness Sun altitude
Rises 23:25:45 0° 13° (NNE) 3,651 8.6 -29.4°
Reaches altitude 10° 23:28:13 10° 13° (NNE) 2,698 7.7 -29.1°
Maximum altitude 23:34:17 86° 286° (WNW) 960 4.3 -28.6°
Enters shadow 23:34:29 83° 233° (SW) 963 4.3 -28.6°
